Location: Newark
(32.9533°N, 113.4900°W)
Time: 16:07:47
(UTC+00:00)

N. Korean satellite - Visible Passes

Search period start: 14 October 2019 00:00
Search period end: 24 October 2019 00:00
Orbit: 455 x 508 km, 97.2° (Epoch: 14 October)

Date Brightness Start Highest point End Pass type
(mag) Time Alt. Az. Time Alt. Az. Time Alt. Az.
15 Oct 10.3 01:48:44 10° WSW 01:50:05 12° W 01:51:26 10° WNW visible
16 Oct 9.1 12:51:53 10° NE 12:55:01 27° E 12:58:10 10° SSE visible
17 Oct 10.2 12:27:56 10° ENE 12:29:37 13° E 12:31:19 10° ESE visible
19 Oct 10.0 01:40:11 10° SW 01:42:14 15° W 01:44:19 10° WNW visible
19 Oct 7.7 13:09:01 10° NNE 13:12:34 50° E 13:16:07 10° S visible
20 Oct 9.5 12:44:18 10° NE 12:47:12 22° E 12:50:08 10° SSE visible
21 Oct 10.6 12:21:24 10° E 12:21:47 10° E 12:22:10 10° E visible
23 Oct 9.7 01:31:50 10° SW 01:34:22 19° W 01:36:54 10° NW visible
23 Oct 8.3 13:01:17 10° NNE 13:04:44 39° E 13:08:12 10° S visible
